Wind_Speed
27 27 27 29 31 31 32 33 34 35 37 37 37 38 39 40 40 41 42 44 45 47 49 50 51 52 53 54 55 57 57 58 58 58 58 59 59 60 59 59 59 59 60
26 27 28 29 31 32 34 35 36 37 38 39 40 40 41 42 43 44 45 47 49 50 52 53 54 55 56 57 58 59 60 60 61 61 62 62 61 60 59 59 58 59 60
26 27 28 29 31 32 34 35 37 38 39 41 42 42 43 44 45 47 48 50 52 53 54 55 57 58 59 60 60 61 62 63 63 63 63 63 62 61 59 58 58 59 60
27 28 29 30 31 33 34 35 37 39 40 42 43 44 45 46 47 49 51 52 54 55 57 58 59 60 61 62 62 63 64 65 65 64 63 63 63 62 61 59 59 59 60
27 28 29 31 32 33 35 36 38 40 41 43 45 46 47 49 51 52 53 54 56 57 59 60 61 62 63 64 65 65 66 65 65 64 63 62 62 62 62 61 60 60 60
28 29 31 32 33 34 36 38 40 42 44 45 47 48 50 51 53 54 56 57 58 59 60 61 62 63 64 65 66 66 66 65 64 63 63 63 62 62 62 61 61 61 61
31 31 32 33 35 36 38 40 42 44 46 48 49 51 52 54 55 56 58 59 60 61 62 63 63 64 65 66 66 66 66 64 63 63 63 63 62 62 62 62 62 61 61
32 33 34 36 37 39 41 42 44 46 48 49 51 52 54 55 56 58 60 61 63 63 64 64 64 65 65 66 66 66 64 63 63 63 63 63 62 62 62 62 62 62 61
34 35 36 38 40 41 43 44 46 47 49 51 52 54 55 57 58 59 61 61 62 63 64 64 64 64 64 63 63 63 62 62 62 62 63 63 63 63 62 62 63 63 61
37 38 39 40 41 42 43 45 47 48 50 52 53 55 56 58 58 59 60 60 61 62 63 64 63 62 61 60 61 61 61 62 62 63 64 64 63 63 63 63 63 63 62
38 38 39 40 41 42 43 45 46 48 49 51 52 54 55 57 58 58 59 60 60 61 62 62 61 60 59 60 61 61 62 63 63 64 64 63 63 63 62 62 63 62 62
38 38 39 41 42 43 44 45 46 47 49 50 51 53 54 55 56 57 58 58 59 59 59 60 60 60 60 60 61 61 62 63 63 63 63 62 62 61 61 62 62 62 61
40 41 42 43 44 45 46 47 48 49 50 51 52 53 54 55 55 56 57 57 58 58 59 59 60 60 60 61 61 61 62 62 62 61 61 60 60 60 61 61 61 61 60
42 43 44 45 46 47 48 50 51 52 52 53 54 54 55 56 56 56 57 57 58 59 59 60 60 61 62 62 62 63 62 62 61 61 60 60 60 60 60 60 60 60 60
45 46 47 48 49 50 52 53 54 54 55 55 55 56 56 56 57 57 57 57 58 59 59 60 60 61 61 61 62 62 62 61 60 60 59 59 59 59 59 59 59 59 59
48 50 51 52 53 54 55 55 56 56 57 57 57 57 57 57 58 58 57 58 59 59 59 59 59 59 60 61 61 62 61 60 60 59 59 59 59 60 59 59 58 58 59
52 53 55 56 57 58 59 59 59 59 59 59 59 59 59 60 59 59 59 59 59 59 59 59 59 60 60 61 61 62 60 59 59 59 59 59 59 59 59 58 58 59 59
57 58 59 60 61 61 62 62 63 63 62 62 62 61 61 61 61 60 60 60 59 59 59 60 60 60 60 61 61 61 61 60 60 60 59 59 58 58 57 57 57 58 58
62 63 64 65 65 66 66 66 66 65 65 64 63 62 62 62 61 60 60 60 60 59 59 59 60 59 60 61 61 61 61 61 60 59 59 58 57 56 56 56 56 56 56
66 67 68 69 69 70 70 69 67 66 65 64 63 62 62 62 61 61 61 60 60 59 59 59 59 59 59 59 60 61 60 60 59 58 58 57 56 55 56 56 55 55 54
71 72 72 73 72 72 71 70 68 66 65 64 63 62 62 62 61 61 60 60 59 59 59 59 59 58 58 58 59 59 59 59 58 57 56 55 55 55 55 55 54 53 52
75 75 75 74 73 72 71 69 67 66 64 63 62 61 61 61 61 60 59 59 59 58 58 58 57 57 57 57 57 58 58 58 56 55 55 54 53 52 53 52 52 51 49
77 76 76 74 72 70 69 68 65 64 62 61 61 60 60 59 59 59 58 57 57 57 57 57 56 55 55 56 56 56 56 56 55 54 52 51 50 50 50 49 48 47 46
76 75 73 71 68 67 66 65 63 62 61 60 59 58 57 57 56 56 56 56 55 55 56 56 55 54 54 54 54 54 53 52 51 50 49 48 47 46 45 44 44 44 44
73 71 69 67 65 63 62 62 61 60 59 58 57 56 55 54 53 53 53 53 53 54 55 54 53 52 51 51 51 50 48 47 46 45 44 43 42 41 40 40 41 42 41
69 67 65 63 61 60 59 59 58 58 56 55 54 53 52 52 51 50 50 50 51 52 52 51 50 49 48 48 47 45 44 43 42 41 40 39 38 38 38 38 38 38 39
Wind_Direction
287 285 282 279 277 276 275 274 274 275 276 278 278 279 280 281 282 283 284 284 285 287 288 290 290 291 292 292 293 293 293 293 293 293 293 293 293 293 293 293 292 290 289
292 289 286 283 281 279 279 278 277 277 278 279 279 280 281 281 282 283 283 284 285 286 288 289 290 291 291 291 292 292 292 293 292 293 292 292 291 292 292 292 291 290 289
295 293 290 287 284 283 282 282 281 280 280 280 281 281 281 282 283 282 282 283 285 286 287 289 289 290 290 291 291 292 292 292 292 292 292 292 291 291 290 289 289 288 288
298 295 293 290 288 286 285 283 283 282 282 282 282 282 283 283 282 282 283 284 285 286 287 288 289 289 290 290 291 291 292 292 293 292 292 292 292 292 291 290 289 288 288
301 298 295 292 290 288 286 285 284 283 283 283 283 283 284 283 283 283 284 284 285 286 287 288 288 289 289 290 291 291 292 293 293 293 293 293 292 293 292 291 291 289 289
302 298 296 293 290 288 287 286 285 285 284 284 284 284 284 284 284 284 284 285 285 286 287 287 288 288 289 290 291 292 292 293 293 293 293 293 294 294 293 292 291 290 290
302 299 296 293 291 289 288 287 286 285 285 285 285 285 285 285 286 286 286 286 286 286 286 287 288 288 289 290 291 292 292 293 293 294 294 294 294 294 293 293 292 291 290
304 301 298 295 292 291 289 288 287 287 286 286 286 286 286 286 286 286 286 286 287 287 287 287 288 289 289 290 291 292 293 294 294 295 295 294 294 294 293 293 293 292 291
308 304 300 298 296 294 292 291 289 288 288 287 287 287 286 286 287 287 287 287 288 288 288 288 289 290 290 291 292 293 293 294 295 294 294 295 294 294 293 293 293 292 291
310 307 304 301 298 296 294 293 291 290 289 289 288 288 288 288 288 288 288 288 288 288 289 289 289 290 291 292 292 293 294 294 294 294 294 294 294 293 293 292 292 292 292
309 307 305 303 301 299 298 296 295 294 292 292 291 290 289 289 289 289 289 289 289 290 290 290 290 291 291 291 292 293 293 294 294 293 293 293 293 293 292 291 291 292 292
311 310 309 307 306 305 303 302 300 299 297 296 295 293 293 292 291 291 290 290 290 291 291 291 291 291 291 292 292 292 292 293 293 293 293 293 292 291 291 291 291 292 292
313 312 310 309 308 307 305 304 303 302 300 299 297 296 295 294 293 293 293 292 292 292 291 292 292 292 292 292 292 292 292 292 292 293 293 293 292 292 291 291 291 292 292
311 311 310 309 308 307 306 305 304 303 302 300 299 298 297 296 296 295 295 294 293 293 292 292 292 291 291 292 292 292 292 293 292 293 292 292 292 292 292 291 291 291 292
309 309 308 308 308 307 306 305 304 303 302 301 300 299 299 298 298 297 296 295 294 294 293 293 292 292 291 292 292 292 292 292 292 293 292 292 292 292 292 292 292 291 292
308 307 306 306 306 305 305 304 304 303 302 301 300 299 299 298 298 297 296 295 295 294 294 293 293 293 293 293 293 292 292 292 292 292 292 292 292 292 292 292 292 292 292
306 305 305 305 305 305 305 305 304 303 302 301 300 299 298 298 297 296 296 295 295 295 294 293 293 293 293 292 292 292 292 292 292 292 292 291 291 291 291 291 292 292 293
305 305 305 305 305 304 304 304 303 303 302 301 300 299 298 298 297 296 296 295 295 295 295 295 294 294 293 292 292 292 292 292 292 292 292 292 291 290 290 290 291 292 293
305 305 305 304 304 304 304 303 303 302 302 301 299 299 298 297 296 296 296 295 295 295 296 296 295 294 293 292 293 292 292 292 292 291 291 292 290 290 290 290 291 292 292
304 304 304 304 304 303 303 303 303 302 301 300 299 298 297 297 296 296 296 295 295 295 296 296 296 294 293 293 293 293 293 293 292 291 291 291 289 288 289 290 291 291 291
303 303 303 303 303 303 303 303 302 302 301 300 299 298 297 297 297 297 297 297 296 297 297 297 297 296 295 294 294 294 294 293 292 292 291 290 289 288 289 290 291 291 290
303 303 303 303 303 303 303 302 302 301 301 300 299 298 298 297 297 298 298 298 298 298 298 298 298 296 295 295 295 295 295 294 292 292 291 290 289 289 289 289 290 290 290
303 303 303 303 303 303 302 302 302 301 300 299 299 298 298 298 299 299 299 299 299 299 300 300 299 297 296 296 296 295 295 294 292 291 291 290 289 289 289 289 289 290 290
303 303 303 303 303 303 302 302 301 301 301 300 300 299 299 299 300 300 300 300 301 301 302 301 300 299 298 298 297 296 295 294 292 291 290 289 289 289 289 289 289 290 291
303 303 303 304 303 303 303 302 302 302 301 301 302 302 302 302 302 302 302 303 303 304 305 304 303 302 301 300 299 298 296 295 293 292 291 290 289 288 289 289 289 289 290
304 304 304 304 304 304 303 303 303 303 303 303 304 304 304 304 304 304 305 305 306 306 307 306 305 304 303 302 301 299 298 296 295 293 292 291 290 289 289 289 289 289 290
Height
5802 5801 5801 5800 5799 5798 5797 5796 5795 5793 5791 5790 5789 5787 5785 5783 5782 5779 5776 5773 5770 5767 5764 5762 5758 5755 5752 5748 5744 5740 5736 5733 5728 5725 5722 5719 5715 5711 5707 5702 5698 5694 5690
5797 5795 5795 5793 5792 5791 5790 5788 5787 5786 5784 5782 5780 5779 5777 5775 5772 5769 5766 5763 5760 5756 5753 5749 5746 5742 5739 5735 5731 5726 5722 5719 5714 5710 5706 5703 5702 5697 5693 5688 5683 5678 5674
5791 5789 5788 5787 5785 5784 5782 5781 5779 5778 5776 5773 5771 5769 5767 5765 5762 5759 5755 5752 5748 5745 5741 5737 5733 5729 5725 5721 5716 5712 5708 5703 5700 5696 5691 5686 5683 5680 5678 5674 5669 5664 5659
5785 5783 5781 5780 5778 5776 5774 5772 5770 5768 5766 5764 5761 5759 5756 5754 5751 5747 5744 5740 5736 5732 5728 5724 5719 5715 5711 5707 5702 5697 5692 5688 5684 5680 5676 5671 5666 5662 5659 5657 5652 5647 5643
5779 5777 5775 5772 5770 5768 5766 5764 5761 5759 5756 5754 5751 5748 5745 5742 5738 5735 5731 5728 5724 5719 5714 5710 5705 5700 5696 5692 5687 5682 5677 5673 5668 5663 5659 5655 5650 5646 5641 5639 5635 5630 5626
5773 5770 5768 5765 5762 5760 5757 5754 5751 5749 5746 5743 5740 5736 5733 5729 5725 5722 5718 5714 5710 5706 5701 5695 5690 5685 5681 5676 5671 5666 5661 5657 5652 5647 5642 5638 5634 5630 5625 5621 5617 5613 5609
5766 5763 5760 5757 5754 5751 5748 5745 5741 5738 5734 5731 5727 5724 5720 5716 5712 5708 5703 5699 5695 5691 5686 5680 5676 5670 5665 5660 5655 5650 5645 5640 5636 5631 5626 5622 5618 5613 5608 5603 5599 5595 5592
5758 5755 5751 5748 5745 5741 5738 5734 5731 5727 5723 5719 5715 5710 5706 5702 5698 5693 5688 5683 5679 5675 5670 5665 5660 5655 5650 5644 5639 5634 5629 5624 5619 5614 5609 5604 5600 5595 5591 5586 5581 5577 5574
5750 5746 5742 5738 5735 5731 5727 5723 5719 5715 5710 5706 5702 5697 5692 5688 5683 5678 5673 5668 5663 5658 5653 5648 5644 5639 5634 5628 5623 5618 5613 5608 5603 5598 5593 5588 5583 5578 5573 5569 5564 5559 5556
5740 5736 5732 5728 5724 5720 5716 5711 5707 5702 5698 5693 5688 5684 5679 5674 5669 5664 5659 5653 5648 5642 5637 5632 5627 5623 5618 5612 5607 5602 5597 5591 5586 5581 5576 5571 5566 5561 5556 5551 5546 5542 5538
5731 5727 5722 5718 5713 5709 5704 5699 5695 5690 5685 5680 5675 5670 5664 5659 5654 5649 5644 5638 5633 5627 5622 5616 5611 5607 5602 5596 5591 5586 5581 5575 5570 5564 5559 5554 5549 5544 5539 5534 5529 5525 5520
5722 5717 5713 5708 5703 5698 5693 5688 5683 5678 5672 5667 5661 5656 5650 5645 5639 5634 5629 5623 5618 5612 5606 5601 5595 5590 5585 5580 5575 5570 5564 5558 5553 5548 5542 5537 5532 5527 5522 5517 5512 5508 5503
5712 5708 5703 5698 5693 5687 5682 5676 5671 5665 5660 5654 5648 5642 5636 5630 5624 5619 5613 5608 5602 5597 5591 5585 5580 5574 5569 5563 5558 5552 5547 5542 5536 5531 5525 5520 5515 5510 5505 5500 5496 5491 5486
5703 5698 5693 5688 5682 5677 5671 5665 5659 5653 5647 5641 5634 5628 5622 5616 5610 5604 5598 5592 5586 5580 5575 5569 5563 5558 5552 5546 5541 5535 5530 5524 5519 5514 5509 5504 5498 5493 5488 5483 5479 5474 5469
5694 5688 5683 5677 5671 5665 5659 5653 5646 5640 5633 5627 5620 5614 5607 5601 5595 5588 5582 5576 5570 5564 5558 5552 5547 5541 5535 5529 5523 5518 5512 5507 5502 5497 5492 5487 5482 5476 5471 5466 5461 5456 5452
5683 5677 5671 5665 5659 5653 5646 5639 5633 5626 5619 5612 5606 5599 5592 5586 5579 5573 5566 5560 5554 5548 5541 5535 5529 5524 5518 5511 5505 5500 5495 5490 5485 5481 5475 5470 5465 5459 5454 5449 5444 5439 5434
5671 5665 5659 5652 5645 5639 5632 5625 5618 5611 5604 5597 5590 5583 5576 5570 5563 5557 5550 5544 5537 5531 5524 5518 5512 5507 5501 5494 5488 5482 5478 5474 5469 5463 5458 5453 5448 5442 5437 5432 5427 5422 5417
5658 5651 5644 5638 5631 5624 5617 5610 5602 5595 5588 5581 5574 5566 5559 5553 5546 5539 5533 5526 5520 5514 5507 5501 5495 5489 5483 5476 5470 5464 5460 5456 5452 5446 5440 5435 5430 5425 5420 5415 5410 5405 5400
5643 5636 5629 5622 5615 5607 5600 5593 5586 5578 5570 5563 5556 5549 5541 5535 5529 5522 5516 5509 5503 5497 5490 5484 5477 5472 5466 5458 5452 5446 5441 5438 5433 5428 5423 5418 5413 5408 5402 5398 5394 5389 5384
5627 5620 5613 5605 5598 5590 5582 5575 5568 5560 5553 5546 5539 5531 5523 5517 5511 5504 5498 5491 5485 5479 5473 5467 5460 5453 5448 5441 5434 5428 5423 5419 5415 5410 5405 5401 5396 5391 5385 5381 5378 5374 5369
5610 5602 5595 5587 5579 5571 5563 5557 5549 5542 5535 5528 5521 5513 5506 5499 5492 5486 5480 5473 5467 5461 5455 5449 5442 5435 5429 5423 5416 5410 5404 5400 5396 5392 5388 5383 5378 5374 5369 5365 5362 5358 5353
5592 5584 5576 5569 5560 5551 5543 5538 5531 5523 5516 5509 5502 5495 5488 5481 5475 5469 5462 5455 5449 5443 5436 5430 5424 5417 5411 5404 5398 5392 5387 5382 5378 5374 5370 5366 5361 5357 5353 5349 5346 5342 5338
5573 5564 5557 5550 5542 5532 5524 5517 5512 5505 5498 5492 5485 5478 5471 5464 5457 5451 5445 5438 5431 5425 5418 5412 5405 5400 5393 5387 5381 5375 5369 5364 5360 5357 5353 5349 5345 5341 5338 5334 5330 5327 5323
5553 5545 5537 5531 5524 5516 5507 5499 5493 5487 5481 5474 5468 5461 5454 5448 5441 5434 5428 5421 5415 5408 5401 5394 5388 5382 5376 5370 5364 5358 5353 5348 5343 5339 5336 5333 5329 5326 5323 5320 5317 5313 5310
5535 5527 5519 5512 5506 5499 5492 5483 5476 5470 5464 5458 5451 5445 5438 5432 5426 5419 5412 5405 5399 5391 5384 5377 5370 5364 5359 5353 5347 5342 5337 5332 5328 5324 5321 5318 5315 5312 5310 5307 5304 5300 5297
5518 5511 5503 5496 5489 5483 5476 5468 5461 5454 5448 5442 5436 5430 5423 5417 5411 5405 5399 5391 5384 5377 5368 5361 5354 5348 5343 5337 5332 5327 5322 5317 5314 5310 5308 5305 5302 5300 5298 5295 5292 5288 5285